EW5860 Weather Reports


time (UTC)temp
F
wind
direction
speed
knots
gust
knots
rain 1hr
in
rain 24hr
in
rain mn
in
humidity
%
barometer
mb
20260905103018 67 250 0.0 0.0 0.00 0.05 0.00 97 1010.5
20260905101511 68 250 0.0 0.0 0.00 0.05 0.00 97 1010.4
20260905100009 68 250 0.0 0.0 0.00 0.05 0.00 97 1010.4
20260905094511 68 250 0.0 0.0 0.00 0.05 0.00 97 1010.3
20260905093009 68 250 0.0 0.0 0.00 0.05 0.00 97 1010.3
20260905091515 68 250 0.0 0.0 0.00 0.05 0.00 97 1010.3
20260905090008 69 250 0.0 0.0 0.00 0.05 0.00 97 1010.3
20260905084507 68 250 0.0 0.0 0.00 0.05 0.00 97 1010.3
20260905083007 68 250 0.0 0.0 0.00 0.05 0.00 97 1010.2
20260905081508 68 250 0.0 0.0 0.00 0.05 0.00 97 1010.3
20260905080006 69 250 0.0 0.0 0.00 0.05 0.00 97 1010.3
20260905074511 69 250 0.0 0.0 0.00 0.05 0.00 98 1010.3
20260905073004 69 250 0.0 0.9 0.00 0.05 0.00 98 1010.2
20260905071504 68 150 0.0 0.0 0.00 0.05 0.00 98 1010.2
20260905070004 68 150 0.0 0.0 0.00 0.05 0.00 98 1010.2
20260905064502 68 150 0.0 0.0 0.00 0.05 0.00 98 1010.4
20260905063101 68 150 0.0 0.0 0.00 0.05 0.00 97 1010.5
20260905061622 68 150 0.0 0.0 0.00 0.05 0.00 97 1010.5
20260905060112 68 150 0.0 0.0 0.00 0.05 0.00 97 1010.6
20260905054556 68 150 0.0 0.0 0.00 0.05 0.00 97 1010.6
20260905053054 68 150 0.0 0.0 0.00 0.05 0.00 97 1010.7
20260905051551 69 150 0.0 0.0 0.00 0.05 0.00 96 1010.8
20260905050049 70 150 0.0 0.0 0.00 0.05 0.00 96 1010.9
20260905044547 71 138 0.0 0.9 0.04 0.05 0.00 96 1010.9
20260905043044 71 74 0.0 0.0 0.05 0.05 0.00 95 1011.0
20260905041541 72 74 0.0 0.0 0.05 0.05 0.00 94 1011.0
20260905040040 72 26 0.0 2.6 0.05 0.05 0.00 94 1011.2
20260905034547 73 73 0.0 1.7 0.00 0.05 0.00 95 1011.4
20260905033038 73 277 0.0 0.0 0.00 0.05 0.00 95 1011.3
20260905031538 73 277 0.0 0.0 0.00 0.05 0.00 95 1011.0
20260905030040 73 277 0.0 0.0 0.00 0.05 0.00 95 1010.9
20260905024537 73 277 0.0 0.0 0.00 0.05 0.00 95 1010.8
20260905023035 73 277 0.0 0.0 0.00 0.05 0.00 95 1010.7
20260905021536 73 277 0.0 0.0 0.00 0.05 0.00 94 1010.7
20260905020040 73 277 0.0 0.0 0.00 0.05 0.00 94 1010.7
20260905014538 74 277 0.0 0.0 0.00 0.05 0.00 94 1010.8
20260905013034 74 277 0.0 0.0 0.00 0.05 0.00 94 1010.6
20260905011541 74 277 0.0 0.0 0.00 0.05 0.00 93 1010.7
20260905010034 74 277 0.0 0.0 0.00 0.05 0.00 93 1010.7
20260905004539 74 277 0.0 0.0 0.00 0.05 0.00 93 1010.8
20260905003034 75 277 0.0 0.0 0.00 0.05 0.00 92 1010.6
20260905001546 75 277 0.0 0.0 0.00 0.05 0.00 92 1010.6
20260905000032 75 277 0.0 0.0 0.00 0.05 0.00 91 1010.5
20260904234538 76 277 0.0 0.0 0.00 0.05 0.00 89 1010.3
20260904233040 77 277 0.0 0.0 0.00 0.05 0.00 87 1010.2
20260904231538 78 277 0.0 0.9 0.00 0.05 0.00 83 1010.1
20260904230028 79 277 0.0 0.0 0.00 0.05 0.00 80 1010.3
20260904224528 80 277 0.0 0.0 0.00 0.05 0.00 77 1010.4
20260904223026 80 248 0.9 2.6 0.00 0.05 0.00 76 1010.4
20260904221526 80 209 0.0 1.7 0.00 0.05 0.00 76 1010.6
20260904220026 80 240 0.0 4.3 0.00 0.05 0.00 76 1010.7
20260904214525 81 224 0.0 1.7 0.00 0.05 0.00 77 1010.7
20260904213027 81 261 0.0 0.9 0.00 0.05 0.00 77 1010.9
20260904211524 81 261 0.0 0.9 0.00 0.05 0.00 75 1010.8
20260904210024 81 261 0.0 1.7 0.00 0.05 0.00 72 1010.9
20260904204523 82 267 0.0 4.3 0.00 0.05 0.00 69 1010.6
20260904203022 83 257 0.0 3.5 0.00 0.05 0.00 69 1010.5
20260904201521 84 240 0.9 7.0 0.00 0.05 0.00 66 1010.4
20260904200022 84 266 3.5 9.6 0.00 0.05 0.00 63 1010.8
20260904194520 84 258 0.9 9.6 0.00 0.05 0.00 63 1011.1
20260904193018 84 178 3.5 9.6 0.00 0.05 0.00 64 1011.4
20260904191518 84 234 3.5 11.3 0.00 0.05 0.00 63 1011.5
20260904190024 84 245 2.6 8.7 0.00 0.05 0.00 65 1011.7
20260904184517 84 250 1.7 12.2 0.00 0.05 0.00 66 1011.8
20260904183023 84 14 2.6 13.0 0.00 0.05 0.00 65 1012.0
20260904181527 83 279 1.7 9.6 0.00 0.05 0.00 67 1012.0
20260904180015 84 258 2.6 9.6 0.00 0.05 0.00 65 1012.1
20260904174515 83 301 2.6 10.4 0.00 0.05 0.00 66 1012.2
20260904173033 84 121 0.9 9.6 0.00 0.05 0.00 69 1012.0
20260904171514 83 262 2.6 7.0 0.00 0.05 0.00 69 1012.1
20260904170012 84 273 1.7 8.7 0.00 0.05 0.00 67 1012.2
20260904164511 83 242 0.0 8.7 0.00 0.05 0.00 67 1012.3
20260904163008 83 262 0.0 6.1 0.00 0.05 0.00 70 1012.3
20260904161511 82 214 0.9 7.8 0.00 0.05 0.00 71 1012.4
20260904160006 83 243 0.9 4.3 0.00 0.05 0.00 70 1012.7
20260904154506 82 242 1.7 7.0 0.00 0.05 0.00 69 1012.6
20260904153003 82 48 0.0 4.3 0.00 0.05 0.00 71 1012.5
20260904151503 81 266 0.0 8.7 0.00 0.05 0.00 72 1012.6
20260904150002 81 37 0.0 7.0 0.00 0.05 0.00 74 1012.5
20260904144611 80 242 0.9 7.0 0.00 0.05 0.00 73 1012.4
20260904143101 79 269 2.6 7.0 0.00 0.05 0.00 74 1012.5
20260904141602 79 330 0.9 5.2 0.00 0.05 0.00 76 1012.4
20260904140054 79 324 0.0 6.1 0.00 0.05 0.00 77 1012.3
20260904134552 78 225 0.9 6.1 0.00 0.05 0.00 78 1012.5
20260904133057 77 202 0.0 4.3 0.00 0.05 0.00 81 1012.5
20260904131547 76 46 0.9 9.6 0.00 0.05 0.00 81 1012.5
20260904130045 76 24 0.0 6.1 0.00 0.05 0.00 83 1012.8
20260904124543 75 270 0.9 8.7 0.00 0.05 0.00 85 1012.6
20260904123042 74 284 2.6 12.2 0.00 0.05 0.00 85 1012.6
20260904121541 74 275 1.7 10.4 0.00 0.05 0.00 86 1012.8
20260904120042 73 313 0.9 6.1 0.00 0.05 0.00 87 1012.7
20260904114540 73 267 0.9 8.7 0.00 0.05 0.00 88 1012.6
20260904113038 72 236 0.9 9.6 0.00 0.05 0.00 89 1012.5
20260904111536 72 22 1.7 7.0 0.00 0.05 0.00 89 1012.3
20260904110034 72 266 3.5 8.7 0.00 0.05 0.00 89 1012.1
20260904104534 72 284 1.7 9.6 0.00 0.06 0.00 89 1011.7